Regional Weather Roundup
Issued by NWS

Home | Current Version | Previous Version | Graphics & Text | Print | Product List | Glossary Off
Versions: 1 2 3 4 5 6 7 8 9 10 11 12 13 14 15 16 17 18 19 20 21 22 23 24 25 26 27 28 29 30 31 32 33 34 35 36 37 38 39 40 41 42 43 44 45 46 47 48 49 50

000
ASUS43 KMKX 281620
RWRWI

WISCONSIN REGIONAL WEATHER ROUNDUP
NATIONAL WEATHER SERVICE MILWAUKEE/SULLIVAN WI
1000 AM CST SAT FEB 28 2015

NOTE: "FAIR" INDICATES FEW OR NO CLOUDS BELOW 12,000 FEET WITH NO
SIGNIFICANT WEATHER AND/OR OBSTRUCTIONS TO VISIBILITY.

WIZ001-002-006>008-014>016-023>028-281700-
NORTHWEST WISCONSIN

CITY           SKY/WX    TMP DP  RH WIND       PRES   REMARKS
SUPERIOR ARPT  MOSUNNY   10   1  65 SW8       30.49S WCI  -1
ASHLAND        SUNNY     12  -3  51 S10       30.50S WCI  -1
HAYWARD        SUNNY      7  -1  70 S14       30.48S WCI -10
SIREN          FAIR      11   0  62 SW8       30.49F WCI  -1
CUMBERLAND     SUNNY      3   0  85 S6        30.50S WCI  -8
RICE LAKE      SUNNY      6  -1  73 S12       30.53F WCI -10
CHETEK         SUNNY      7  -2  69 S7        30.54S WCI  -5
LADYSMITH      SUNNY      4  -2  77 S6        30.54F WCI  -7
EAU CLAIRE     SUNNY      7  -2  66 S9        30.56F WCI  -7
MENOMONIE      SUNNY      6  -2  69 S8        30.56F WCI  -6
NEW RICHMOND   SUNNY      9   0  65 S10       30.52F WCI  -5
OSCEOLA        SUNNY      8   0  69 S9        30.54F WCI  -5
$$

WIZ003>005-009-010-017-018-281700-
NORTH CENTRAL WISCONSIN

CITY           SKY/WX    TMP DP  RH WIND       PRES   REMARKS
MANITOWISH WTR SUNNY      7  -1  70 SW7       30.45S WCI  -5
ARBOR VITAE    SUNNY      9   1  68 S10       30.46S WCI  -5
WOODRUFF       SUNNY      9   1  68 S10       30.46S WCI  -5
RHINELANDER    SUNNY      5  -1  76 SW6       30.49S WCI  -6
EAGLE RIVER    SUNNY      8  -3  63 SW8       30.47S WCI  -5
LAND O LAKES   SUNNY     11  -1  59 S6        30.45F WCI   1
PHILLIPS       FAIR       6  -1  72 S7        30.48F WCI  -6
TOMAHAWK       SUNNY      7  -1  70 CALM      30.51F
MEDFORD        SUNNY      2  -2  81 S3        30.51F
MERRILL        SUNNY      6  -2  67 SW3       30.54S
$$

WIZ029-030-035-036-043>047-281700-
CENTRAL WISCONSIN

CITY           SKY/WX    TMP DP  RH WIND       PRES   REMARKS
WAUSAU         SUNNY      4  -2  76 S7        30.55F WCI  -8
MOSINEE        SUNNY      3  -2  78 CALM      30.57S
MARSHFIELD     SUNNY      4  -3  73 CALM      30.55F
STEVENS POINT  SUNNY      6  -4  65 S5        30.59S WCI  -3
WAUPACA        SUNNY     11  -2  54 CALM      30.63S
WAUTOMA        SUNNY     10  -5  51 S3        30.64S
WISC RAPIDS    SUNNY      6  -4  63 SW3       30.61S
CAMP DOUGLAS   SUNNY      7  -2  66 VRB3      30.62S
$$

WIZ011>013-019>022-031-037>040-048>050-281700-
NORTHEAST WISCONSIN

CITY           SKY/WX    TMP DP  RH WIND       PRES   REMARKS
ANTIGO         SUNNY      2  -3  79 CALM      30.53S
SHAWANO        SUNNY     10  -1  60 SW3       30.63S
OCONTO         SUNNY     11   0  61 W6        30.64S WCI   2
STURGEON BAY   SUNNY     10   0  61 W12       30.64S WCI  -4
GREEN BAY      SUNNY      9   0  67 S8        30.65S WCI  -3
MANITOWOC      SUNNY     16   0  49 SW7       30.66F WCI   6
APPLETON       SUNNY      9  -2  61 SW6       30.63S WCI  -1
CLINTONVILLE   SUNNY      9   0  66 SW3       30.62F
OSHKOSH        SUNNY      8  -2  63 S6        30.64F WCI  -2
$$

WIZ032>034-041-042-053>061-281700-
SOUTHWEST WISCONSIN

CITY           SKY/WX    TMP DP  RH WIND       PRES   REMARKS
LA CROSSE      SUNNY      3  -5  69 S7        30.64F WCI  -9
SPARTA         SUNNY     10  -3  56 S8        30.63S WCI  -3
VIROQUA        SUNNY      5  -4  66 S6        30.57F WCI  -5
BOSCOBEL       SUNNY      3  -7  63 CALM      30.68F
PRAIRIE DU CHI SUNNY     -2 -11  64 CALM      30.66F
PLATTEVILLE    SUNNY      0  -4  82 SE5       30.63F WCI -10
$$

WIZ056-057-062-063-064-067-068-281700-
SOUTH CENTRAL WISCONSIN

CITY           SKY/WX    TMP DP  RH WIND       PRES   REMARKS
REEDSBURG      SUNNY      6  -3  65 S6        30.63F WCI  -4
BARABOO/DELLS  SUNNY      7  -5  59 SW3       30.62F
LONE ROCK      SUNNY      1  -7  68 NE3       30.66F
MINERAL POINT  SUNNY      5  -4  66 S5        30.62S WCI  -4
MADISON        MOSUNNY    6  -4  63 S8        30.65F WCI  -7
MIDDLETON      SUNNY     10  -4  54 S8        30.65S WCI  -3
WATERTOWN      SUNNY      9  -2  62 S6        30.66F WCI  -1
MONROE         SUNNY      9   0  66 S7        30.63F WCI  -3
JANESVILLE     SUNNY      5  -4  66 CALM      30.68F
$$

WIZ051-052-058>065-066-070>072-281700-
SOUTHEAST WISCONSIN

CITY           SKY/WX    TMP DP  RH WIND       PRES   REMARKS
MILWAUKEE      SUNNY      8  -4  58 SW8       30.70S WCI  -4
WAUKESHA       SUNNY      7  -6  56 SW6       30.68S WCI  -3
MILWAUKEE/TIMM SUNNY     10  -6  48 SW9       30.70S WCI  -2
RACINE         SUNNY      8  -4  58 W6        30.72F WCI  -2
BURLINGTON     SUNNY      7  -5  57 W3        30.69S
KENOSHA        SUNNY      9  -2  61 SW7       30.70F WCI  -2
FOND DU LAC    SUNNY     10  -2  58 SW8       30.65F WCI  -2
SHEBOYGAN      SUNNY     11  -3  53 SW6       30.66S WCI   1
WEST BEND      SUNNY     12  -6  44 SW6       30.65F WCI   3
JUNEAU         SUNNY      7  -3  65 SW10      30.67R WCI  -8
$$

LSZ147-162-281700-
LAKE SUPERIOR

STATION/POSITION TIME  TEMP    WIND        PRES    WAVE
                       AIR SEA DIR/SP/G            HT/PER
                 (UTC) (F)     (DEG/KT/KT) (MB)    (FT/S)
DEVILS ISLAND    1600    9     200/  5/  7 1033.7F
PORT WING        1500    8     190/ 10/ 15 1032.2S
SAXON HARBOR     1500    9     200/  8/ 13 1032.8S
$$

LMZ867-665-643>646-281700-
LAKE MICHIGAN

STATION/POSITION TIME  TEMP    WIND        PRES    WAVE
                       AIR SEA DIR/SP/G            HT/PER
                 (UTC) (F)     (DEG/KT/KT) (MB)    (FT/S)
NORTHPORT PIER   1500   10     230/  4/ 11 1036.9R
KEWAUNEE LAKESHO 1500    8     270/  8/ 10 1036.7F
SHEBOYGAN LAKESH 1600   11     210/  6/  7 1040.5S
PORT WASHINGTON  1540   15     230/  5/  6 1040.0S
MILWAUKEE LAKESH 1600   11     240/  9/ 12   N/A
KENOSHA   LAKESH 1600   10     220/  6/  9 1039.6F
$$

TC  - TEMPERATURE IN CELSIUS
VSB - VISIBILITY IN STATUTE MILES
WCI - WIND CHILL INDEX
HX  - HEAT INDEX



USA.gov is the U.S. government's official web portal to all federal, state and local government web resources and services.